Location: New Plymouth
(39.0670°S, 174.0830°E)
Time: 09:44:56
(UTC+12:00)

NOAA 19 - Pass Details

Date: 24 August 2019
Orbit: 840 x 862 km, 99.2° (Epoch: 18 September)

Event Time Altitude Azimuth Distance (km) Brightness Sun altitude
Rises 04:21:20 0° 32° (NNE) 3,388 8.6 -31.3°
Reaches altitude 10° 04:23:45 10° 38° (NE) 2,462 7.9 -30.8°
Maximum altitude 04:28:58 47° 110° (ESE) 1,112 6.1 -29.8°
Drops below altitude 10° 04:34:15 10° 182° (S) 2,498 7.7 -28.8°
Sets 04:36:42 0° 187° (S) 3,443 8.4 -28.3°
